This is the latest recevied weather packets stored in our database for station/object WB5CFT. If no packets are shown the sender has not sent any weather packets the latest 10 day(s).
| Time | Temp. | Humidity | Pressure | Rain* | Wind** | Luminosity | Snow |
|---|---|---|---|---|---|---|---|
| 1777361210 | 18.89° C | 27% | 1013.5 hPa | 0 mm | - | 0 W/m² | - |
| 1777360907 | 18.89° C | 29% | 1013.5 hPa | 0 mm | - | 0 W/m² | - |
| 1777360605 | 18.89° C | 28% | 1013.4 hPa | 0 mm | - | 0 W/m² | - |
| 1777360301 | 18.33° C | 28% | 1013.6 hPa | 0 mm | - | 0 W/m² | - |
| 1777359999 | 18.33° C | 30% | 1013.4 hPa | 0 mm | - | 0 W/m² | - |
| 1777359695 | 18.89° C | 31% | 1013.4 hPa | 0 mm | - | 0 W/m² | - |
| 1777359392 | 18.89° C | 29% | 1013.3 hPa | 0 mm | - | 0 W/m² | - |
| 1777359089 | 18.89° C | 29% | 1013.3 hPa | 0 mm | - | 0 W/m² | - |
| 1777358787 | 18.89° C | 29% | 1013.3 hPa | 0 mm | - | 0 W/m² | - |
| 1777358484 | 18.89° C | 31% | 1013.2 hPa | 0 mm | - | 0 W/m² | - |
| 1777358181 | 19.44° C | 32% | 1013.4 hPa | 0 mm | - | 0 W/m² | - |
| 1777357880 | 19.44° C | 32% | 1013.4 hPa | 0 mm | - | 0 W/m² | - |
| 1777357576 | 19.44° C | 34% | 1013.4 hPa | 0 mm | - | 0 W/m² | - |
| 1777357273 | 19.44° C | 35% | 1013.2 hPa | 0 mm | - | 0 W/m² | - |
| 1777356970 | 20° C | 33% | 1013.2 hPa | 0 mm | - | 0 W/m² | - |
| 1777356668 | 20° C | 34% | 1013 hPa | 0 mm | - | 0 W/m² | - |
| 1777356364 | 20° C | 33% | 1013 hPa | 0 mm | - | 0 W/m² | - |
| 1777356061 | 20.56° C | 32% | 1012.8 hPa | 0 mm | - | 0 W/m² | - |
| 1777355757 | 20.56° C | 29% | 1012.8 hPa | 0 mm | - | 0 W/m² | - |
| 1777355455 | 20.56° C | 29% | 1012.8 hPa | 0 mm | - | 0 W/m² | - |
| 1777355150 | 21.11° C | 30% | 1012.8 hPa | 0 mm | - | 0 W/m² | - |
| 1777354848 | 21.67° C | 30% | 1012.7 hPa | 0 mm | - | 0 W/m² | - |
| 1777354544 | 21.11° C | 30% | 1012.9 hPa | 0 mm | - | 0 W/m² | - |
| 1777354239 | 21.67° C | 28% | 1012.8 hPa | 0 mm | - | 0 W/m² | - |
| 1777353937 | 21.11° C | 26% | 1012.9 hPa | 0 mm | - | 0 W/m² | - |
* Rain latest hour (hover to see other rain measurements)
** Current wind speed in m/s (hover to see current wind gust speed)